Regional Weather Roundup
Issued by NWS

Home | Current Version | Previous Version | Graphics & Text | Print | Product List | Glossary On
Versions: 1 2 3 4 5 6 7 8 9 10 11 12 13 14 15 16 17 18 19 20 21 22 23 24 25 26 27 28 29 30 31 32 33 34 35 36 37 38 39 40 41 42 43 44 45 46 47 48 49 50
000
ASUS43 KMPX 261801
RWRMN
WEATHER ROUNDUP FOR MINNESOTA
NATIONAL WEATHER SERVICE TWIN CITIES/CHANHASSEN MN
1200 PM CST MON JAN 26 2015


NOTE: "FAIR" INDICATES FEW OR NO CLOUDS BELOW 12,000 FEET WITH NO
SIGNIFICANT WEATHER AND/OR OBSTRUCTIONS TO VISIBILITY. N/A MEANS
CURRENT SKY AND/OR WEATHER CONDITIONS ARE NOT AVAILABLE.

MNZ060>063-068>070-261900-
   Twin Cities Metro

CITY           SKY/WX    TMP DP  RH WIND       PRES   REMARKS
TWIN CITIES    PTSUNNY   41  31  67 NW13      29.72S
6HR MIN TEMP:  27; 6HR MAX TEMP:  41;

ST PAUL        PTSUNNY   41  32  70 NW17G23   29.73R
CRYSTAL        PTSUNNY   41  32  70 W10       29.71S
BLAINE         PTSUNNY   43  34  70 W13       29.71R
LAKEVILLE      SUNNY     37  34  87 W16       29.72S
EDEN PRAIRIE   SUNNY     41  31  67 W10       29.72S
6HR MIN TEMP:  29; 6HR MAX TEMP:  41;

SOUTH ST PAUL  MOSUNNY   41  33  72 NW10G18   29.72R
LAKE ELMO      CLOUDY    37  32  81 W12       29.71R
$$
MNZ001>005-007-008-013>017-022>024-027-028-261900-
   Northwest Minnesota

CITY           SKY/WX    TMP DP  RH WIND       PRES   REMARKS
BEMIDJI        CLOUDY    35  31  83 NW20G25   29.69S WCI  24
HALLOCK        CLOUDY    30  28  93 N23G31    29.81R WCI  17
ROSEAU         CLOUDY    34  28  80 NW18G24   29.75R WCI  23
WARROAD        CLOUDY    30  28  93 NW15G23   29.74R WCI  19
THIEF RVR FALL CLOUDY    34  28  80 NW20      29.77R WCI  22
CROOKSTON      PTSUNNY   36  30  80 N31G39    29.80R
FOSSTON        CLOUDY    34  28  80 NW23      29.75R WCI  22
DETROIT LAKES  CLOUDY    36  32  87 NW15G24   29.77R
MOORHEAD       MOSUNNY   43  37  81 NW20      29.81R
PARK RAPIDS    CLOUDY    39  31  72 NW23G29   29.70R
MAHNOMEN       CLOUDY    35  31  87 NW13      29.76R WCI  26
$$
MNZ006-009>011-018-025>026-261900-
   North Central Minnesota

CITY           SKY/WX    TMP DP  RH WIND       PRES   REMARKS
BAUDETTE       CLOUDY    32  28  85 N22       29.69R WCI  19
FLAG ISLAND    CLOUDY    28  25  86 NW23      29.73R WCI  14
INTL FALLS     CLOUDY    30  25  81 NW14      29.66R WCI  19
6HR MIN TEMP:  23; 6HR MAX TEMP:  30; 6HR PCP:  0.02;

WASKISH        CLOUDY    36  30  80 NW12      29.69R
BIG FORK       LGT SNOW  36  30  80 NW5       29.65R
LONGVILLE      CLOUDY    37  32  81 NW10G16   29.67S
GRAND RAPIDS   CLOUDY    36  30  80 NW20      29.64R
CRANE LAKE     LGT SNOW  25  23  93 CALM      29.66R
ORR            MIX PCPN  28  25  86 CALM      29.62R
COOK           LGT SNOW  27  25  93 SW3       29.64R
WALKER         CLOUDY    36  31  83 NW16G25   29.68R
$$
MNZ012-019>021-037-261900-
   Northeast Minnesota

CITY           SKY/WX    TMP DP  RH WIND       PRES   REMARKS
DULUTH         LGT SNOW  25  21  85 SW5       29.64R FOG     WCI  19
6HR MIN TEMP:  20; 6HR MAX TEMP:  25; 6HR PCP:  0.05;

ELY            CLOUDY    23  19  86 S3        29.64R
HIBBING        LGT SNOW  27  22  81 CALM      29.64S
EVELETH        LGT SNOW  27  23  86 SW3       29.64F
DULUTH HARBOR  MIX PCPN  27  25  93 CALM      29.70S
TWO HARBORS    CLOUDY    27  21  80 CALM      29.65S
SILVER BAY     CLOUDY    27  23  86 CALM      29.66S
GRAND MARAIS     N/A     27  22  81 S8        29.72S WCI  19
G MARAIS ARPRT   N/A     19  18  93 SE5       29.65R FOG     WCI  13
$$
MNZ029>031-032-039>041-046>048-054>057-064-261900-
   West Central Minnesota

CITY           SKY/WX    TMP DP  RH WIND       PRES   REMARKS
FERGUS FALLS   MOSUNNY   37  32  81 NW15      29.82R
WHEATON        SUNNY     39  34  81 W18G29    29.84R
MORRIS         SUNNY     41  34  75 NW23G30   29.78S
ALEXANDRIA     PTSUNNY   38  32  79 NW12      29.76R
ELBOW LAKE     FAIR      37  32  81 NW20      29.79R
WADENA         SUNNY     39  30  70 NW16      29.73R
GLENWOOD       SUNNY     37  34  87 NW20G25   29.77R
APPLETON       SUNNY     45  36  70 NW20G25   29.81S
BENSON         SUNNY     43  36  75 N20       29.79R
ORTONVILLE     SUNNY     43  34  70 NW20G26   29.82R
MADISON        SUNNY     46  37  71 NW18      29.82S
WILLMAR        FAIR      41  34  75 NW20      29.79S
$$
MNZ033>034-036-042>043-049>051-058-059-261900-
   Central Minnesota

CITY           SKY/WX    TMP DP  RH WIND       PRES   REMARKS
ST CLOUD       MOSUNNY   41  32  70 NW16      29.72R
6HR MIN TEMP:  28; 6HR MAX TEMP:  42;

SAUK CENTRE    CLOUDY    37  32  81 W12G17    29.75R
PAYNESVILLE    CLOUDY    36  32  85 W13       29.76R
AITKIN         CLOUDY    39  32  75 W5        29.66R
PINE RIVER     CLOUDY    39  32  75 NW10      29.73R
BRAINERD       CLOUDY    39  32  76 NW12      29.70R
STAPLES        CLOUDY    39  30  70 NW14      29.72R
LONG PRAIRIE   CLOUDY    37  32  81 W15       29.73S
LITTLE FALLS   MOSUNNY   41  32  70 NW13      29.72R
LITCHFIELD     CLOUDY    41  36  81 NW12      29.76S
BUFFALO        SUNNY     40  32  72 W10       29.74R
MAPLE LAKE     SUNNY     42  35  75 W13G18    29.74R
$$
MNZ037-044-045-052-053-261900-
   East Central Minnesota

CITY           SKY/WX    TMP DP  RH WIND       PRES   REMARKS
PRINCETON      CLOUDY    45  34  65 W13       29.71R
MORA           CLOUDY    36  30  80 NW6       29.70R
CAMBRIDGE      CLOUDY    39  30  70 W7        29.68S
RUSH CITY      CLOUDY    36  31  82 NW5       29.70R
MOOSE LAKE     CLOUDY    30  27  86 CALM      29.65S FOG
HINCKLEY       CLOUDY    32  32 100 W5        29.68R WCI  27
CLOQUET        CLOUDY    27  25  93 SW3       29.65S FOG
MCGREGOR       CLOUDY    36  32  87 W7        29.67R
$$
MNZ071>073-080-081-089-090-097-098-261900-
   Southwest Minnesota

CITY           SKY/WX    TMP DP  RH WIND       PRES   REMARKS
MONTEVIDEO     SUNNY     45  43  93 N17G26    29.81S
GRANITE FALLS  SUNNY     42  36  79 W17G23    29.82S
CANBY          SUNNY     46  36  68 NW15G25   29.84S
MARSHALL       SUNNY     45  34  65 NW18G24   29.83S
REDWOOD FALLS  SUNNY     45  34  65 MISG      29.79R
OLIVIA         SUNNY     39  34  81 NW15G22   29.78R
PIPESTONE      SUNNY     39  34  81 NW15G21   29.85R
WINDOM         SUNNY     41  36  81 W16       29.80S
WORTHINGTON    SUNNY     43  36  75 NW16      29.82F
JACKSON        SUNNY     43  34  70 NW15      29.81R
TRACY          SUNNY     43  36  74 NW12      29.82S
SLAYTON        SUNNY     40  34  79 NW16      29.83S
$$
MNZ065>067-074>077-082>085-091>093-261900-
   South Central Minnesota

CITY           SKY/WX    TMP DP  RH WIND       PRES   REMARKS
MANKATO        SUNNY     41  34  75 NW17G23   29.76S
NEW ULM        SUNNY     43  34  70 NW20G25   29.78R
ST JAMES       SUNNY     45  37  76 NW17G24   29.80R
FAIRMONT       SUNNY     45  34  65 NW17G23   29.79R
GLENCOE        SUNNY     40  35  84 W14       29.75S
FARIBAULT      SUNNY     39  34  81 W12       29.74S
OWATONNA       SUNNY     37  32  81 NW15      29.74S
WASECA         SUNNY     39  34  81 NW20      29.76F
ALBERT LEA     MOSUNNY   39  36  87 NW12G18   29.74S
$$
MNZ078>079-086>088-094>096-261900-
   Southeast Minnesota

CITY           SKY/WX    TMP DP  RH WIND       PRES   REMARKS
ROCHESTER      PTSUNNY   36  31  82 W16       29.71F
6HR MIN TEMP:  26; 6HR MAX TEMP:  36; 6HR PCP:  0.01;

RED WING       PTSUNNY   37  30  75 W6        29.71S
STANTON        MOSUNNY   40  33  77 W13       29.71S
DODGE CENTER   CLOUDY    37  34  87 W13       29.71S
WINONA         CLOUDY    30  27  86 SE6       29.74F WCI  24
AUSTIN         CLOUDY    37  34  87 NW16      29.73S
PRESTON        CLOUDY    31  28  90 S10       29.72F WCI  22
$$
ABBREVIATIONS USED IN REMARKS
   TC - TEMPERATURES IN CELSIUS
  WCI - WIND CHILL INDEX
   HX - HEAT INDEX
  VSB - VISIBILITY
$$


USA.gov is the U.S. government's official web portal to all federal, state and local government web resources and services.